Pittsburgh, PA

10:33 PM EDT on October 14, 2019 (GMT -0400)
Pittsburgh International

Weather History for KPIT - September, 2019

Change the Weather History Date:

Saturday, September 21, 2019

  Actual Average Record
Temperature  
Mean Temperature 74 °F 62 °F  
Max Temperature 86 °F 72 °F 93 °F (1895)
Min Temperature 63 °F 52 °F 34 °F (1956)
Degree Days  
Heating Degree Days 0 5  
Month to date heating degree days 3 47  
Since 1 July heating degree days 4 60  
Cooling Degree Days 10 2  
Month to date cooling degree days 102 66  
Year to date cooling degree days 863 718  
Growing Degree Days 24 (Base 50)    
Moisture  
Dew Point 63 °F    
Average Humidity 71    
Maximum Humidity 90    
Minimum Humidity 41    
Precipitation  
Precipitation 0.00 in 0.11 in 1.86 in (1921)
Month to date precipitation 3.66 2.27  
Year to date precipitation 38.42 28.98  
Snow  
Snow 0.00 in 0.00 in 0.00 in (2002)
Month to date snowfall 0.0 0.0  
Since 1 July snowfall 0.0 0.0  
Snow Depth 0.00 in    
Sea Level Pressure  
Sea Level Pressure 30.21 in    
Wind  
Wind Speed 2 mph ()    
Max Wind Speed 13 mph    
Max Gust Speed 16 mph    
Visibility 10.0 miles    
Events      
T = Trace of Precipitation, MM = Missing Value Source: Averaged Metar Reports

Daily Weather History Graph

Daily Weather History Graph

Search for Another Location

Airport or City:

Astronomy

Sep. 21, 2019 Rise Set
Actual Time 7:07 AM EDT 7:20 PM EDT
Civil Twilight 6:40 AM EDT 7:47 PM EDT
Nautical Twilight 6:08 AM EDT 8:19 PM EDT
Astronomical Twilight 5:35 AM EDT 8:51 PM EDT
Moon 11:55 PM EDT (9/21) 2:13 PM EDT (9/21)
Length of Visible Light 13h 07m
Length of Day
12h 12m
Waning Gibbous, 55% of the Moon is Illuminated
Sep 21
Waning Gibbous
Sep 21
Last Quarter
Sep 28
New
Oct 5
First Quarter
Oct 13
Full

Hourly Weather History & Observations

Time (EDT) Temp. Heat Index Dew Point Humidity Pressure Visibility Wind Dir Wind Speed Gust Speed Precip Events Conditions
12:51 AM 66.0 °F - 61.0 °F 84% 30.22 in 10.0 mi Calm Calm - N/A   Clear
1:51 AM 64.9 °F - 61.0 °F 87% 30.22 in 10.0 mi Calm Calm - N/A   Partly Cloudy
2:51 AM 64.0 °F - 60.1 °F 87% 30.21 in 10.0 mi Calm Calm - N/A   Scattered Clouds
3:51 AM 64.9 °F - 61.0 °F 87% 30.20 in 10.0 mi Calm Calm - N/A   Mostly Cloudy
4:51 AM 64.0 °F - 60.1 °F 87% 30.21 in 9.0 mi South 3.5 mph - N/A   Mostly Cloudy
5:51 AM 64.0 °F - 60.1 °F 87% 30.22 in 10.0 mi Calm Calm - N/A   Mostly Cloudy
6:51 AM 64.0 °F - 61.0 °F 90% 30.22 in 10.0 mi Calm Calm - N/A   Scattered Clouds
7:51 AM 64.0 °F - 60.1 °F 87% 30.24 in 10.0 mi Calm Calm - N/A   Mostly Cloudy
8:51 AM 66.9 °F - 62.1 °F 84% 30.26 in 10.0 mi Calm Calm - N/A   Scattered Clouds
9:51 AM 72.0 °F - 64.0 °F 76% 30.25 in 10.0 mi South 3.5 mph - N/A   Scattered Clouds
10:51 AM 75.9 °F - 66.0 °F 71% 30.25 in 10.0 mi Variable 3.5 mph - N/A   Scattered Clouds
11:51 AM 78.1 °F - 66.0 °F 66% 30.24 in 10.0 mi SW 9.2 mph - N/A   Partly Cloudy
12:51 PM 82.9 °F 84.6 °F 64.9 °F 54% 30.22 in 10.0 mi WNW 4.6 mph - N/A   Partly Cloudy
1:51 PM 84.9 °F 86.1 °F 64.0 °F 49% 30.20 in 10.0 mi WSW 9.2 mph - N/A   Scattered Clouds
2:51 PM 84.9 °F 86.1 °F 64.0 °F 49% 30.18 in 10.0 mi West 3.5 mph - N/A   Scattered Clouds
3:51 PM 84.9 °F 85.4 °F 62.1 °F 46% 30.17 in 10.0 mi West 9.2 mph - N/A   Scattered Clouds
4:51 PM 86.0 °F 85.7 °F 60.1 °F 41% 30.16 in 10.0 mi West 4.6 mph - N/A   Scattered Clouds
5:51 PM 84.0 °F 84.9 °F 63.0 °F 49% 30.17 in 10.0 mi West 6.9 mph - N/A   Scattered Clouds
6:51 PM 82.0 °F 83.1 °F 63.0 °F 52% 30.16 in 10.0 mi West 3.5 mph - N/A   Partly Cloudy
7:51 PM 78.1 °F - 66.0 °F 66% 30.17 in 10.0 mi West 3.5 mph - N/A   Scattered Clouds
8:51 PM 75.9 °F - 64.9 °F 69% 30.19 in 10.0 mi West 4.6 mph - N/A   Scattered Clouds
9:51 PM 75.0 °F - 64.9 °F 71% 30.19 in 10.0 mi SW 3.5 mph - N/A   Scattered Clouds
10:51 PM 73.0 °F - 64.9 °F 76% 30.19 in 10.0 mi Calm Calm - N/A   Scattered Clouds
11:51 PM 72.0 °F - 64.9 °F 78% 30.19 in 10.0 mi Calm Calm - N/A   Partly Cloudy